This demonstration page uses our WeatherBlox Daily Observations layout. Learn more.

Left ArrowRight Arrow

Hourly Observations for May 4, 2021

Temp ( °F °C ) Dew Point ( °F °C ) Humidity (%) Winds ( mph kmh ) Pressure ( in mb ) Visibility ( mi km ) Precip ( " mm )
12:53 am 00:53 Clear 57 13.9 43 6.1 60 60 N 18 30 29.92 1013 10 16 0.00 0.00
1:53 am 01:53 Clear 55 12.8 42 5.6 62 62 N 10 17 29.89 1012 10 16 0.00 0.00
2:53 am 02:53 Clear 55 12.8 43 6.1 64 64 N 13 20 29.89 1012 10 16 0.00 0.00
3:53 am 03:53 Clear 54 12.2 44 6.7 69 69 NNW 12 19 29.93 1013 10 16 0.00 0.00
4:34 am 04:34 Mostly Cloudy 54 12.2 44 6.7 69 69 NNW 12 19 30.01 1016 10 16 0.00 0.00
4:53 am 04:53 Mostly Cloudy 54 12.2 44 6.7 69 69 NNW 15 24 29.94 1014 10 16 0.00 0.00
5:53 am 05:53 Cloudy 55 12.8 45 7.2 69 69 N 12 19 29.97 1015 10 16 0.00 0.00
6:53 am 06:53 Cloudy 56 13.3 44 6.7 65 65 NNE 10 17 29.98 1015 10 16 0.00 0.00
7:53 am 07:53 Cloudy 56 13.3 44 6.7 65 65 N 17 28 30.01 1016 10 16 0.00 0.00
8:53 am 08:53 Cloudy 56 13.3 43 6.1 62 62 N 17 28 30.06 1018 10 16 0.00 0.00
9:53 am 09:53 Cloudy 56 13.3 42 5.6 60 60 NNE 14 22 30.09 1019 10 16 0.00 0.00
10:14 am 10:14 Cloudy 58 14.4 42 5.6 56 56 N 14 22 30.12 1020 10 16 0.00 0.00
10:53 am 10:53 Mostly Cloudy 61 16.1 42 5.6 50 50 N 15 24 30.08 1019 10 16 0.00 0.00
11:53 am 11:53 Sunny 65 18.3 42 5.6 43 43 N 12 19 30.08 1019 10 16 0.00 0.00
12:53 pm 12:53 Sunny 68 20 42 5.6 39 39 N 10 17 30.05 1018 10 16 0.00 0.00
1:53 pm 13:53 undefined 69 20.6 41 5 36 36 NE 7 11 30.03 1017 10 16 0.00 0.00
2:53 pm 14:53 Sunny 71 21.7 41 5 34 34 N 8 13 30.01 1016 10 16 0.00 0.00
3:53 pm 15:53 Sunny 74 23.3 41 5 31 31 undefined N/A 29.98 1015 10 16 0.00 0.00
4:53 pm 16:53 Sunny 74 23.3 41 5 31 31 VRB 7 11 29.96 1014 10 16 0.00 0.00
5:53 pm 17:53 Sunny 73 22.8 40 4.4 30 30 undefined N/A 29.94 1014 10 16 0.00 0.00
6:53 pm 18:53 Sunny 74 23.3 39 3.9 28 28 N 9 15 29.94 1014 10 16 0.00 0.00
7:53 pm 19:53 Sunny 73 22.8 40 4.4 30 30 ENE 6 9 29.95 1014 10 16 0.00 0.00
8:53 pm 20:53 Clear 69 20.6 40 4.4 35 35 ENE 7 11 29.98 1015 10 16 0.00 0.00
9:53 pm 21:53 Clear 66 18.9 41 5 40 40 E 7 11 30.00 1016 10 16 0.00 0.00
10:53 pm 22:53 Clear 63 17.2 42 5.6 47 47 ESE 7 11 30.02 1017 10 16 0.00 0.00
11:53 pm 23:53 Clear 63 17.2 43 6.1 48 48 SE 10 17 30.01 1016 10 16 0.00 0.00

Powered by AerisWeather